[[{"header":{"parameterUnit":"m.s-1","parameterCategory":2,"la1":30.2991,"la2":30.254,"lo1":-89.0895,"lo2":-89.0444,"dy":0.0017,"dx":0.0017,"nx":28,"ny":28,"refTime":"2023-09-04T09:00:00:Z","depth":"0","parameterNumber":2,"parameterNumberName":"U-component_of_CURRENTS"},"data":[0,0,0,0,0,0,0,0,0,0,0,0,0,0,0,0,0,0,0,0,0,0,0,0,0,0,0,0,0,0,0,0,0,0,0,0,0,0,0,0,0,0,0,0,0,0,0,0,0,0,0,0,0,0,0,0,0,0,0.1789,0.1788,0,0.1758,0.1757,0.1757,0.1741,0.1741,0.1741,0.1741,0.172,0.1719,0.1718,0,0,0,0,0,0,0,0,0,0,0,0,0,0.1874,0.1873,0.1789,0.1788,0.1788,0.1758,0.1757,0.1757,0.1741,0.1741,0.1741,0.1741,0.172,0.1719,0.1718,0,0,0,0,0,0,0,0,0,0,0,0,0,0.1839,0.1872,0.1789,0.1777,0.1776,0.1758,0.1757,0.1757,0.1741,0.1741,0.1741,0.1741,0.172,0.1719,0.1718,0.1711,0,0,0.1715,0.1715,0,0,0,0,0,0,0,0,0.1841,0.1836,0.1779,0.1778,0.1776,0.1754,0.178,0.1742,0.1741,0.1753,0.1741,0.1741,0.1732,0.173,0.1723,0.171,0.1709,0.1715,0.1715,0.1714,0.1714,0,0,0,0,0,0,0,0.1843,0.1837,0.1776,0.1779,0.1777,0.1787,0.1782,0.1773,0.1742,0.1752,0.1751,0.1749,0.1731,0.1724,0.1723,0.1709,0.1715,0.1714,0.1714,0.1714,0.1722,0.1723,0,0,0,0,0,0,0.1846,0.1839,0.1777,0.1775,0.181,0.1785,0.1779,0.176,0.1742,0.174,0.1749,0.1748,0.1726,0.1724,0.1722,0.1739,0.1714,0.1713,0.1713,0.1721,0.1722,0.1723,0,0,0,0,0,0,0.1848,0.184,0.1778,0.1808,0.1801,0.1784,0.1763,0.176,0.1758,0.174,0.1737,0.1751,0.1726,0.1723,0.1723,0.1737,0.1713,0.1712,0.172,0.1721,0.1722,0.1757,0,0,0,0,0,0,0.185,0.184,0.1832,0.1807,0.1799,0.1777,0.1763,0.1759,0.1757,0.1756,0.1741,0.1739,0.1726,0.1724,0.1722,0.1735,0.1711,0.1719,0.1721,0.1722,0.1754,0.1759,0.1762,0,0,0,0,0,0.1853,0.184,0.1831,0.1824,0.1786,0.1778,0.1775,0.1763,0.1757,0.1761,0.1751,0.1739,0.1732,0.1724,0.1721,0.1735,0.1718,0.172,0.1722,0.1753,0.1758,0.1762,0,0,0,0,0,0,0.1878,0.1837,0.1827,0.1803,0.1797,0.1776,0.1775,0.1768,0.1762,0.1761,0.1744,0.1741,0.175,0.1737,0.1729,0.1743,0.1725,0.1727,0.175,0.1755,0.1759,0.1767,0.1711,0,0,0,0,0,0.1879,0.1856,0.1831,0.1817,0.1811,0.1795,0.1791,0.1784,0.1773,0.177,0.1759,0.1751,0.1754,0.175,0.1748,0.1748,0.1755,0.1758,0.1762,0.1765,0.1771,0.1796,0.1803,0.1729,0.1728,0.1728,0,0,0.1889,0.1862,0.1852,0.1822,0.1812,0.1804,0.1793,0.1789,0.1789,0.1769,0.1767,0.1766,0.1759,0.1765,0.1768,0.1755,0.1791,0.1767,0.177,0.1774,0.1798,0.1806,0.1812,0.173,0.1729,0.1729,0,0,0.1893,0.1871,0.1851,0.1844,0.1828,0.1819,0.1821,0.1803,0.1803,0.18,0.1794,0.1804,0.179,0.1795,0.1795,0.182,0.1816,0.1819,0.1839,0.1863,0.1869,0.1875,0.1898,0.1905,0.1815,0.1815,0.1815,0,0.1907,0.187,0.1852,0.1835,0.1831,0.1826,0.1818,0.182,0.1808,0.1814,0.1805,0.1812,0.1807,0.1827,0.1837,0.1829,0.1841,0.182,0.1869,0.1874,0.188,0.1901,0.1909,0.1817,0.1817,0.1817,0.1816,0,0.1893,0.1871,0.1864,0.1835,0.1835,0.1831,0.1828,0.1835,0.1834,0.1834,0.1855,0.1852,0.1858,0.1862,0.1854,0.1892,0.1888,0.1876,0.1857,0.1889,0.191,0.1917,0.182,0.1819,0.1818,0.1818,0,0,0.1898,0.1858,0.1856,0.1842,0.1833,0.1829,0.1843,0.185,0.1869,0.1866,0.1889,0.1898,0.1904,0.1906,0.1906,0.1925,0.1974,0.1917,0.1917,0.194,0.2032,0.2019,0.2026,0.1971,0.1972,0.1973,0.2033,0,0.189,0.1852,0.1843,0.1831,0.1812,0.1825,0.184,0.1855,0.1876,0.1901,0.1914,0.1937,0.1919,0.1933,0.195,0.1973,0.1995,0.1959,0.1996,0.1998,0.1983,0.2034,0.1943,0.1988,0.204,0.2042,0.2042,0,0.1871,0.1845,0.1819,0.1813,0.181,0.1815,0.1846,0.1863,0.1909,0.1931,0.196,0.1974,0.2009,0.199,0.2039,0.2017,0.2029,0.2041,0.2043,0.2025,0.1999,0.1963,0.1999,0.1952,0.2054,0.2053,0.2052,0,0.1857,0.1833,0.1809,0.1804,0.1799,0.1808,0.1823,0.1867,0.1892,0.1959,0.1983,0.2027,0.205,0.2074,0.2094,0.2073,0.2149,0.2121,0.212,0.2119,0.2046,0.2036,0.2039,0.216,0.216,0.2159,0.2159,0,0.1836,0.1819,0.18,0.1782,0.1783,0.1794,0.1822,0.1857,0.1912,0.1946,0.1993,0.203,0.2073,0.2112,0.2123,0.2152,0.2172,0.2141,0.2141,0.2055,0.2046,0.2003,0.1968,0.2162,0.2161,0.2161,0.216,0,0.1813,0.1797,0.1769,0.1761,0.1765,0.1768,0.1806,0.1833,0.1893,0.1942,0.1962,0.2044,0.2109,0.2147,0.2206,0.2189,0.2154,0.2222,0.2121,0.2108,0.2049,0.2019,0.1941,0.188,0.2231,0.2231,0.2231,0,0.1792,0.177,0.1749,0.1741,0.1735,0.1746,0.176,0.1817,0.1848,0.1943,0.1959,0.2051,0.2101,0.219,0.2204,0.2238,0.2164,0.2164,0.2106,0.2051,0.2017,0.1922,0.1868,0.2023,0.2021,0.202,0.2019,0,0.1761,0.1754,0.1735,0.171,0.171,0.171,0.1732,0.1749,0.182,0.187,0.1939,0.1993,0.2089,0.2103,0.2162,0.2162,0.2046,0.2138,0.2103,0.188,0.1753,0.1692,0.1982,0.2007,0.2008,0.2009,0.201,0.201,0.1748,0.173,0.1706,0.1681,0.1676,0.166,0.1641,0.1679,0.1715,0.1757,0.1864,0.1908,0.1988,0.2064,0.206,0.2004,0.1976,0.193,0.1908,0.1825,0.1729,0.2002,0.2013,0.2014,0.2015,0.2016,0.2017,0,0.1719,0.1702,0.1679,0.1632,0.1597,0.1612,0.1607,0.1578,0.1585,0.1666,0.1718,0.1792,0.1818,0.187,0.187,0.1787,0.1681,0.1726,0.1564,0.1532,0.18,0.1755,0.1683,0.1683,0.1683,0.1684,0.1684,0.1684,0.1704,0.1668,0.1642,0.156,0.1526,0.1454,0.143,0.1411,0.1436,0.1464,0.1502,0.157,0.1684,0.171,0.1658,0.1617,0.1477,0.1383,0.1391,0.1582,0.1599,0.1615,0.1565,0.1455,0.1455,0.1044,0.1041,0.1038]},{"header":{"parameterUnit":"m.s-1","parameterCategory":2,"la1":30.2991,"la2":30.254,"lo1":-89.0895,"lo2":-89.0444,"dy":0.0017,"dx":0.0017,"nx":28,"ny":28,"refTime":"2023-09-04T09:00:00:Z","depth":"0","parameterNumber":3,"parameterNumberName":"V-component_of_CURRENTS"},"data":[0,0,0,0,0,0,0,0,0,0,0,0,0,0,0,0,0,0,0,0,0,0,0,0,0,0,0,0,0,0,0,0,0,0,0,0,0,0,0,0,0,0,0,0,0,0,0,0,0,0,0,0,0,0,0,0,0,0,0.0108,0.0108,0,0.0064,0.0064,0.0063,0.0034,0.0034,0.0034,0.0034,-0.0022,-0.0023,-0.0025,0,0,0,0,0,0,0,0,0,0,0,0,0,0.0132,0.0132,0.0108,0.0108,0.0107,0.0065,0.0064,0.0063,0.0034,0.0034,0.0034,0.0034,-0.0022,-0.0023,-0.0025,0,0,0,0,0,0,0,0,0,0,0,0,0,0.0108,0.0132,0.0108,0.0088,0.0085,0.0065,0.0064,0.0063,0.0034,0.0034,0.0034,0.0033,-0.0021,-0.0023,-0.0025,-0.0031,0,0,-0.0031,-0.0032,0,0,0,0,0,0,0,0,0.011,0.0108,0.0091,0.0089,0.0086,0.0055,0.0052,0.0031,0.0034,0.0053,0.0034,0.0033,0.0003,-0.0001,-0.0009,-0.0034,-0.0036,-0.0031,-0.0032,-0.0033,-0.0034,0,0,0,0,0,0,0,0.0112,0.0109,0.0091,0.0091,0.0088,0.0069,0.0065,0.0048,0.003,0.0052,0.005,0.0045,0.0001,-0.0007,-0.001,-0.0037,-0.0031,-0.0033,-0.0034,-0.0035,-0.0071,-0.0071,0,0,0,0,0,0,0.0119,0.0111,0.0092,0.0089,0.0098,0.0069,0.0065,0.0065,0.003,0.0025,0.0045,0.0044,-0.0003,-0.0008,-0.0012,-0.0015,-0.0033,-0.0035,-0.0036,-0.0071,-0.0071,-0.0071,0,0,0,0,0,0,0.012,0.0118,0.0094,0.0099,0.0094,0.0069,0.0069,0.0064,0.0056,0.0026,0.002,0.0042,-0.0004,-0.001,-0.0024,-0.0018,-0.0036,-0.0038,-0.0071,-0.0071,-0.0071,-0.0026,0,0,0,0,0,0,0.0121,0.0119,0.0123,0.01,0.0095,0.0086,0.0069,0.0064,0.0054,0.0051,0.0021,0.0015,-0.0004,-0.0021,-0.0026,-0.0021,-0.0039,-0.0072,-0.0071,-0.0071,-0.0028,-0.0024,-0.0021,0,0,0,0,0,0.0122,0.013,0.0123,0.0121,0.01,0.0086,0.0082,0.0062,0.0054,0.0053,0.0034,0.0016,-0.0022,-0.0022,-0.0028,-0.0024,-0.0072,-0.0071,-0.0071,-0.0029,-0.0025,-0.0021,0,0,0,0,0,0,0.0137,0.0127,0.0119,0.0122,0.0107,0.0081,0.008,0.0065,0.0049,0.0049,0.0019,0.0013,0.0002,-0.0017,-0.0016,-0.0033,-0.005,-0.0051,-0.0016,-0.0012,-0.0009,0.0006,-0.0041,0,0,0,0,0,0.0144,0.0151,0.0131,0.0133,0.0128,0.0105,0.0097,0.0084,0.0066,0.0058,0.0037,0.0016,-0.0001,-0.0011,-0.0029,-0.0037,-0.0055,-0.0039,-0.0036,-0.0033,-0.0025,-0.0048,-0.0046,-0.0069,-0.0069,-0.0069,0,0,0.0149,0.0145,0.0147,0.0137,0.0125,0.0124,0.0099,0.0092,0.0092,0.0055,0.005,0.0027,-0.0001,-0.001,-0.0016,-0.0024,-0.0036,-0.0032,-0.0029,-0.0023,-0.0048,-0.0045,-0.0043,-0.0069,-0.0069,-0.0069,0,0,0.0166,0.0161,0.0172,0.0165,0.0153,0.014,0.014,0.0118,0.0109,0.0098,0.0074,0.0057,0.0029,0.0012,-0.0,0.001,-0.0017,0.0002,0.0031,0.0009,0.0011,0.0012,-0.0005,-0.0005,0.0004,0.0004,0.0004,0,0.0171,0.0184,0.0171,0.0179,0.0179,0.0151,0.016,0.0147,0.0123,0.0121,0.0103,0.0067,0.004,0.0032,0.0034,0.0018,0.0003,0.002,0.0014,0.0015,0.0015,-0.0002,-0.0003,0.0007,0.0006,0.0006,0.0006,0,0.0196,0.0206,0.0211,0.0217,0.0214,0.0217,0.02,0.0195,0.0179,0.0164,0.015,0.0113,0.0092,0.0078,0.0059,0.0053,0.004,0.0021,0.0006,0.0021,0.0001,-0.0001,0.001,0.0009,0.0008,0.0008,0,0,0.0212,0.0227,0.023,0.0242,0.0237,0.0238,0.0241,0.0237,0.0246,0.0212,0.0217,0.0178,0.0157,0.0141,0.0111,0.0089,0.0076,0.0061,0.0059,0.005,0.0031,0.0029,0.0026,0.0056,0.0055,0.0055,0.0017,0,0.0235,0.0266,0.0266,0.0291,0.0304,0.0289,0.0295,0.0289,0.0278,0.0275,0.0233,0.0223,0.0181,0.0173,0.0144,0.0096,0.0072,0.0088,0.0015,0.0013,0.0013,0.0025,0.0052,0.0021,0.0015,0.0014,0.0014,0,0.0262,0.0281,0.0312,0.0335,0.034,0.0349,0.0364,0.037,0.0358,0.0349,0.033,0.0296,0.0262,0.022,0.0146,0.0159,0.0102,0.0058,0.0055,0.0037,0.0007,0.0004,0.0017,-0.0045,0.0011,0.0011,0.0011,0,0.0287,0.0315,0.0345,0.0352,0.0368,0.038,0.0391,0.0393,0.0413,0.0401,0.0408,0.0358,0.0338,0.026,0.017,0.0157,0.0086,0.0054,-0.0002,-0.0003,-0.0,-0.0001,-0.0051,0.0,0.0,0.0,0.0001,0,0.0315,0.0339,0.0359,0.0375,0.0414,0.0415,0.0457,0.0459,0.0475,0.0511,0.0452,0.0463,0.0347,0.029,0.0195,0.0101,0.0104,0.0011,-0.0011,0.0016,0.0018,-0.0055,-0.0113,-0.0001,-0.0001,-0.0,-0.0,0,0.0338,0.0351,0.0388,0.0415,0.0427,0.0458,0.0508,0.0543,0.0546,0.059,0.0589,0.0545,0.0477,0.0358,0.0238,0.0145,0.0001,0.0008,0.0052,0.0037,-0.0078,-0.0135,-0.0219,-0.0273,-0.0061,-0.0061,-0.0061,0,0.0353,0.0374,0.042,0.0451,0.0466,0.0513,0.0552,0.0577,0.0623,0.0648,0.0675,0.0621,0.0605,0.0428,0.0259,0.0101,0.0004,0.0006,-0.0018,-0.0073,-0.0153,-0.0184,-0.0227,0.0,0.0001,0.0001,0.0001,0,0.0384,0.04,0.0434,0.0495,0.0542,0.0601,0.0658,0.0703,0.0742,0.0778,0.0818,0.0808,0.0653,0.0517,0.0295,0.0171,-0.0041,0.0006,-0.0063,-0.0116,-0.0141,-0.0206,0.0014,0.0003,0.0003,0.0003,0.0003,0.0003,0.0411,0.0444,0.0491,0.0548,0.0607,0.068,0.073,0.0799,0.0875,0.0936,0.093,0.094,0.075,0.046,0.0284,-0.0,-0.0031,-0.0082,-0.0149,-0.0175,-0.0222,0.0009,-0.0019,-0.002,-0.002,-0.002,-0.002,0,0.0445,0.0485,0.0542,0.0613,0.0675,0.0699,0.0796,0.085,0.0941,0.1016,0.1057,0.0997,0.0751,0.0478,0.0101,-0.0103,-0.0192,-0.0217,-0.0254,-0.0295,-0.0091,-0.008,-0.0106,-0.0106,-0.0106,-0.0106,-0.0106,-0.0106,0.0469,0.0526,0.0552,0.0653,0.0703,0.0781,0.0834,0.0923,0.0998,0.109,0.1124,0.1141,0.0972,0.0327,-0.0125,-0.0253,-0.0399,-0.0414,-0.0517,-0.0366,-0.0358,-0.035,-0.0351,-0.0433,-0.0434,-0.0671,-0.0674,-0.0675]}],[{"header":{"parameterUnit":"m.s-1","parameterCategory":2,"la1":30.2991,"la2":30.254,"lo1":-89.0895,"lo2":-89.0444,"dy":0.0017,"dx":0.0017,"nx":28,"ny":28,"refTime":"2023-09-04T09:00:00:Z","depth":"2","parameterNumber":2,"parameterNumberName":"U-component_of_CURRENTS"},"data":[0,0,0,0,0,0,0,0,0,0,0,0,0,0,0,0,0,0,0,0,0,0,0,0,0,0,0,0,0,0,0,0,0,0,0,0,0,0,0,0,0,0,0,0,0,0,0,0,0,0,0,0,0,0,0,0,0,0,0.1715,0.1715,0,0.1708,0.1708,0.1708,0.1703,0.1703,0.1703,0.1703,0.1697,0.1696,0.1696,0,0,0,0,0,0,0,0,0,0,0,0,0,0.1724,0.1724,0.1715,0.1715,0.1715,0.1708,0.1708,0.1708,0.1703,0.1703,0.1703,0.1703,0.1697,0.1696,0.1696,0,0,0,0,0,0,0,0,0,0,0,0,0,0.1718,0.1724,0.1715,0.1713,0.1713,0.1708,0.1708,0.1707,0.1703,0.1703,0.1703,0.1703,0.1697,0.1696,0.1696,0.1691,0,0,0.1695,0.1695,0,0,0,0,0,0,0,0,0.1718,0.1717,0.1713,0.1713,0.1713,0.1708,0.1709,0.1702,0.1703,0.1706,0.1703,0.1703,0.1701,0.17,0.1697,0.1691,0.169,0.1695,0.1695,0.1694,0.1694,0,0,0,0,0,0,0,0.1719,0.1718,0.1711,0.1713,0.1713,0.1712,0.1711,0.1707,0.1702,0.1705,0.1705,0.1706,0.1701,0.1697,0.1697,0.169,0.1695,0.1694,0.1694,0.1694,0.1715,0.1716,0,0,0,0,0,0,0.1722,0.1718,0.1711,0.1711,0.1717,0.1712,0.1711,0.1708,0.1702,0.1701,0.1706,0.1706,0.1698,0.1697,0.1696,0.1721,0.1694,0.1694,0.1694,0.1714,0.1715,0.1716,0,0,0,0,0,0,0.1722,0.1721,0.1712,0.1716,0.1715,0.1712,0.1709,0.1708,0.1713,0.1703,0.1702,0.1713,0.1698,0.1697,0.1703,0.1719,0.1694,0.1693,0.1714,0.1715,0.1716,0.1749,0,0,0,0,0,0,0.1722,0.1721,0.1725,0.1716,0.1715,0.1719,0.1709,0.1708,0.1714,0.1714,0.1708,0.1707,0.1698,0.1704,0.1703,0.1718,0.1693,0.1713,0.1714,0.1715,0.1747,0.1751,0.1755,0,0,0,0,0,0.1723,0.1725,0.1725,0.1724,0.1718,0.172,0.1719,0.1717,0.1714,0.1721,0.1717,0.1708,0.1713,0.1704,0.1703,0.1718,0.1712,0.1714,0.1715,0.1745,0.1751,0.1755,0,0,0,0,0,0,0.1731,0.1724,0.1724,0.1725,0.1728,0.172,0.1725,0.1723,0.1724,0.1725,0.1714,0.1713,0.1728,0.1718,0.1708,0.173,0.1713,0.1714,0.1736,0.1741,0.1745,0.175,0.1693,0,0,0,0,0,0.1735,0.1736,0.1732,0.1736,0.1737,0.1733,0.1735,0.1734,0.1732,0.1733,0.1728,0.1726,0.1733,0.1732,0.1734,0.174,0.1745,0.1751,0.1755,0.1759,0.1763,0.1787,0.1794,0.1722,0.1722,0.1722,0,0,0.174,0.1737,0.1738,0.1738,0.1739,0.1741,0.1735,0.1741,0.1746,0.1732,0.1738,0.1742,0.1739,0.1751,0.1756,0.1744,0.1783,0.1761,0.1764,0.1767,0.179,0.1797,0.1803,0.1723,0.1723,0.1723,0,0,0.1746,0.1748,0.1749,0.1753,0.1757,0.1755,0.176,0.1757,0.1762,0.1767,0.1765,0.1779,0.1775,0.1782,0.1784,0.1811,0.1807,0.1812,0.1831,0.1854,0.1861,0.1866,0.1885,0.1892,0.1809,0.1809,0.1809,0,0.1756,0.1749,0.1752,0.1754,0.1757,0.1763,0.1765,0.1772,0.1773,0.1781,0.1775,0.1792,0.1791,0.1814,0.1825,0.182,0.1831,0.1812,0.186,0.1865,0.187,0.1889,0.1896,0.1811,0.1811,0.181,0.181,0,0.1752,0.1756,0.176,0.1762,0.1769,0.1775,0.1783,0.1794,0.1799,0.1804,0.183,0.1833,0.1843,0.1849,0.1844,0.1881,0.1877,0.1866,0.1848,0.188,0.1897,0.1904,0.1813,0.1813,0.1812,0.1812,0,0,0.1751,0.1756,0.1758,0.176,0.1773,0.1775,0.1796,0.1812,0.1833,0.1839,0.1864,0.188,0.1888,0.1892,0.1894,0.1913,0.196,0.1906,0.1906,0.1925,0.2013,0.1987,0.1992,0.1958,0.1959,0.196,0.2012,0,0.1749,0.175,0.1756,0.1764,0.1764,0.1782,0.1802,0.1822,0.1845,0.1874,0.189,0.1916,0.1903,0.1919,0.1936,0.1959,0.1979,0.1946,0.1979,0.198,0.1953,0.2,0.1827,0.1857,0.2019,0.202,0.2021,0,0.1738,0.1739,0.1743,0.1761,0.1764,0.1775,0.1812,0.1833,0.188,0.1904,0.1935,0.1951,0.1988,0.1971,0.2019,0.2,0.2011,0.2022,0.2024,0.1993,0.1967,0.185,0.1863,0.2032,0.2031,0.203,0.2029,0,0.1718,0.1731,0.1733,0.1737,0.1759,0.1771,0.1791,0.1838,0.1865,0.1932,0.1956,0.2001,0.2026,0.205,0.2069,0.2051,0.212,0.2096,0.2082,0.208,0.1935,0.1919,0.2131,0.2131,0.2131,0.2131,0.213,0,0.1705,0.1707,0.1724,0.1721,0.1735,0.176,0.1792,0.1829,0.1886,0.1919,0.1968,0.2002,0.2048,0.2085,0.2095,0.2115,0.2141,0.2099,0.2097,0.1943,0.1927,0.2075,0.2068,0.2133,0.2132,0.2132,0.2131,0,0.168,0.1692,0.1691,0.1713,0.1722,0.1733,0.178,0.1807,0.1868,0.1917,0.1937,0.2015,0.2074,0.2111,0.2166,0.2145,0.217,0.2168,0.1986,0.1962,0.2106,0.21,0.216,0.2159,0.2159,0.2159,0.2159,0,0.1666,0.1662,0.1677,0.168,0.1689,0.1713,0.1731,0.1793,0.1822,0.1915,0.1929,0.2015,0.2053,0.2129,0.213,0.2153,0.2186,0.2001,0.1935,0.212,0.2112,0.2107,0.2101,0.1756,0.1752,0.175,0.1747,0,0.164,0.1647,0.1648,0.1651,0.1663,0.1674,0.1703,0.1719,0.1792,0.1836,0.1895,0.1938,0.2013,0.197,0.2013,0.1998,0.1985,0.1945,0.2187,0.1782,0.1745,0.1736,0.1742,0.1722,0.1724,0.1726,0.1728,0.1729,0.1623,0.1619,0.1623,0.1618,0.1629,0.1622,0.1608,0.1645,0.1676,0.1707,0.1801,0.1804,0.184,0.1822,0.178,0.1747,0.1882,0.1787,0.1793,0.1803,0.1753,0.1719,0.1681,0.1683,0.1685,0.1687,0.1688,0,0.1592,0.1592,0.1589,0.1571,0.1548,0.1575,0.1575,0.1544,0.1542,0.1595,0.1629,0.1525,0.1503,0.1535,0.1446,0.1459,0.1412,0.1399,0.1316,0.1344,0.1368,0.1293,0.11,0.1098,0.1096,0.1095,0,0,0.1574,0.1555,0.1543,0.1488,0.1477,0.1423,0.1403,0.1376,0.138,0.1355,0.1341,0.1441,0.1493,0.128,0.1261,0.116,0.1236,0.1114,0.1589,0.1519,0.1541,0.1602,0.152,0,0,0,0,0]},{"header":{"parameterUnit":"m.s-1","parameterCategory":2,"la1":30.2991,"la2":30.254,"lo1":-89.0895,"lo2":-89.0444,"dy":0.0017,"dx":0.0017,"nx":28,"ny":28,"refTime":"2023-09-04T09:00:00:Z","depth":"2","parameterNumber":3,"parameterNumberName":"V-component_of_CURRENTS"},"data":[0,0,0,0,0,0,0,0,0,0,0,0,0,0,0,0,0,0,0,0,0,0,0,0,0,0,0,0,0,0,0,0,0,0,0,0,0,0,0,0,0,0,0,0,0,0,0,0,0,0,0,0,0,0,0,0,0,0,0.0059,0.0058,0,0.0018,0.0017,0.0017,-0.0012,-0.0012,-0.0013,-0.0013,-0.0068,-0.0069,-0.007,0,0,0,0,0,0,0,0,0,0,0,0,0,0.0071,0.0072,0.0059,0.0058,0.0058,0.0018,0.0017,0.0016,-0.0012,-0.0012,-0.0013,-0.0013,-0.0067,-0.0069,-0.0071,0,0,0,0,0,0,0,0,0,0,0,0,0,0.0052,0.0072,0.0059,0.0039,0.0037,0.0018,0.0017,0.0016,-0.0012,-0.0012,-0.0013,-0.0013,-0.0067,-0.0069,-0.0071,-0.0077,0,0,-0.0077,-0.0077,0,0,0,0,0,0,0,0,0.0053,0.0051,0.0042,0.004,0.0038,0.0008,0.0001,-0.0015,-0.0012,0.0006,-0.0013,-0.0013,-0.0043,-0.0047,-0.0055,-0.0079,-0.0082,-0.0077,-0.0078,-0.0079,-0.0079,0,0,0,0,0,0,0,0.0054,0.0052,0.0042,0.0042,0.0039,0.0018,0.0015,-0.0002,-0.0017,0.0004,0.0002,-0.0002,-0.0045,-0.0053,-0.0056,-0.0083,-0.0077,-0.0078,-0.008,-0.008,-0.0116,-0.0115,0,0,0,0,0,0,0.0062,0.0054,0.0043,0.0041,0.0045,0.0018,0.0015,0.0017,-0.0017,-0.0022,-0.0001,-0.0003,-0.0049,-0.0054,-0.0058,-0.0061,-0.0079,-0.0081,-0.0082,-0.0116,-0.0115,-0.0115,0,0,0,0,0,0,0.0063,0.0062,0.0045,0.0046,0.0043,0.0019,0.0021,0.0017,0.0009,-0.0021,-0.0027,-0.0005,-0.005,-0.0056,-0.0069,-0.0064,-0.0081,-0.0083,-0.0116,-0.0116,-0.0115,-0.0071,0,0,0,0,0,0,0.0064,0.0063,0.0067,0.0047,0.0043,0.0038,0.0021,0.0016,0.0007,0.0004,-0.0026,-0.0031,-0.005,-0.0066,-0.0071,-0.0067,-0.0085,-0.0116,-0.0116,-0.0115,-0.0073,-0.0069,-0.0066,0,0,0,0,0,0.0064,0.0073,0.0068,0.0066,0.005,0.0038,0.0034,0.0015,0.0007,0.0006,-0.0013,-0.003,-0.0067,-0.0068,-0.0074,-0.0069,-0.0117,-0.0116,-0.0115,-0.0074,-0.007,-0.0066,0,0,0,0,0,0,0.0075,0.007,0.0064,0.0069,0.0056,0.0033,0.0031,0.0018,0.0002,0.0002,-0.0027,-0.0034,-0.0044,-0.0063,-0.0062,-0.0078,-0.0095,-0.0096,-0.0062,-0.0058,-0.0054,-0.0041,-0.0086,0,0,0,0,0,0.0082,0.0091,0.0075,0.0079,0.0075,0.0054,0.0047,0.0035,0.0018,0.0011,-0.0009,-0.003,-0.0047,-0.0056,-0.0074,-0.0082,-0.01,-0.0084,-0.0081,-0.0078,-0.007,-0.0093,-0.0091,-0.0114,-0.0114,-0.0114,0,0,0.0085,0.0085,0.0087,0.0082,0.0071,0.0072,0.0049,0.0043,0.0043,0.0008,0.0003,-0.0019,-0.0046,-0.0055,-0.0061,-0.007,-0.0081,-0.0077,-0.0074,-0.0069,-0.0092,-0.009,-0.0088,-0.0113,-0.0113,-0.0113,0,0,0.0099,0.0098,0.011,0.0106,0.0097,0.0086,0.0087,0.0068,0.0059,0.0049,0.0026,0.001,-0.0017,-0.0033,-0.0045,-0.0034,-0.0062,-0.0042,-0.0014,-0.0036,-0.0034,-0.0032,-0.0051,-0.0051,-0.004,-0.004,-0.004,0,0.0101,0.0118,0.0109,0.0119,0.012,0.0096,0.0106,0.0094,0.0072,0.0071,0.0054,0.0019,-0.0006,-0.0014,-0.0011,-0.0026,-0.0042,-0.0026,-0.0031,-0.003,-0.0029,-0.0048,-0.0049,-0.0038,-0.0038,-0.0038,-0.0039,0,0.0125,0.0137,0.0144,0.0154,0.0152,0.0157,0.0143,0.0139,0.0124,0.0112,0.0099,0.0064,0.0045,0.0031,0.0013,0.0008,-0.0006,-0.0023,-0.0038,-0.0024,-0.0045,-0.0047,-0.0035,-0.0036,-0.0036,-0.0037,0,0,0.0132,0.0157,0.0159,0.0174,0.0174,0.0177,0.0181,0.0179,0.0188,0.0157,0.0161,0.0126,0.0106,0.0091,0.0063,0.0042,0.0029,0.0016,0.0014,0.0002,-0.0015,-0.0017,-0.002,0.0011,0.0011,0.0011,-0.0031,0,0.0153,0.0188,0.0191,0.0219,0.0235,0.0224,0.0232,0.0228,0.0218,0.0216,0.0177,0.0168,0.0129,0.0122,0.0095,0.0049,0.0026,0.0043,-0.0031,-0.0033,-0.0034,-0.0022,-0.0002,-0.0037,-0.0033,-0.0034,-0.0034,0,0.0175,0.0199,0.0234,0.0263,0.0269,0.0279,0.0297,0.0303,0.0294,0.0286,0.0268,0.0236,0.0205,0.0166,0.0095,0.0108,0.0053,0.0011,0.0008,-0.001,-0.0039,-0.0053,-0.0042,-0.0038,-0.0038,-0.0037,-0.0037,0,0.0194,0.0228,0.0262,0.0271,0.0296,0.0309,0.0321,0.0325,0.0345,0.0335,0.0341,0.0294,0.0275,0.0202,0.0115,0.0105,0.0034,0.0005,-0.005,-0.0051,-0.0056,-0.0057,-0.0047,-0.0047,-0.0047,-0.0047,-0.0047,0,0.0218,0.0244,0.0274,0.0293,0.0334,0.034,0.0383,0.0385,0.0402,0.0435,0.0382,0.0391,0.0283,0.0228,0.0139,0.0047,0.0051,-0.0039,-0.0059,-0.004,-0.0039,-0.0058,-0.0058,-0.0049,-0.0048,-0.0048,-0.0048,0,0.0233,0.0253,0.0296,0.0332,0.0346,0.0378,0.0429,0.0463,0.0468,0.0508,0.0508,0.0466,0.0399,0.0288,0.0173,0.0087,-0.0008,-0.0045,-0.0011,-0.0027,-0.0088,-0.0086,-0.0113,-0.0113,-0.0114,-0.0114,-0.0114,0,0.0244,0.0268,0.0325,0.0358,0.0377,0.0426,0.0465,0.0493,0.0535,0.056,0.0583,0.0531,0.0509,0.0341,0.0185,0.0034,0.0002,-0.0058,-0.008,-0.0076,-0.0094,-0.0091,-0.0089,-0.0072,-0.0072,-0.0072,-0.0072,0,0.0264,0.0285,0.0324,0.0392,0.0442,0.0503,0.0559,0.0601,0.0641,0.0671,0.0704,0.0689,0.0543,0.0404,0.0197,0.0087,-0.0033,-0.0061,-0.0065,-0.0054,-0.004,-0.0057,-0.0055,-0.0071,-0.0071,-0.0071,-0.0071,-0.0071,0.028,0.0312,0.0367,0.0431,0.0494,0.0568,0.0616,0.0681,0.075,0.0798,0.0791,0.0771,0.062,0.0361,0.0184,-0.0016,-0.0014,-0.0094,-0.0094,-0.0094,-0.0077,-0.0064,-0.0096,-0.0096,-0.0096,-0.0097,-0.0097,0,0.0299,0.0341,0.0401,0.0482,0.0548,0.058,0.0674,0.0721,0.08,0.0852,0.0879,0.0732,0.0586,0.0398,0.0117,-0.0048,-0.007,-0.0114,-0.0098,-0.0097,-0.0097,-0.008,-0.0101,-0.0101,-0.0102,-0.0102,0,0,0.0314,0.0368,0.04,0.0507,0.0566,0.0651,0.0703,0.0777,0.0832,0.0874,0.0871,0.0862,0.0648,0.0446,0.0226,0.0064,0.0014,0.0022,0.0044,0.009,0.0092,-0.0066,-0.0037,0,0,0,0,0]}],[{"header":{"parameterUnit":"m.s-1","parameterCategory":2,"la1":30.2991,"la2":30.254,"lo1":-89.0895,"lo2":-89.0444,"dy":0.0017,"dx":0.0017,"nx":28,"ny":28,"refTime":"2023-09-04T09:00:00:Z","depth":"4","parameterNumber":2,"parameterNumberName":"U-component_of_CURRENTS"},"data":[0,0,0,0,0,0,0,0,0,0,0,0,0,0,0,0,0,0,0,0,0,0,0,0,0,0,0,0,0,0,0,0,0,0,0,0,0,0,0,0,0,0,0,0,0,0,0,0,0,0,0,0,0,0,0,0,0,0,0.1087,0.1088,0,0.1144,0.1144,0.1144,0.1184,0.1185,0.1185,0.1186,0.1244,0.1245,0.1246,0,0,0,0,0,0,0,0,0,0,0,0,0,0.0985,0.0987,0.1087,0.1088,0.1089,0.1143,0.1144,0.1145,0.1184,0.1185,0.1186,0.1186,0.1243,0.1245,0.1246,0,0,0,0,0,0,0,0,0,0,0,0,0,0.1032,0.0988,0.1087,0.1117,0.1121,0.1143,0.1144,0.1145,0.1184,0.1185,0.1186,0.1186,0.1243,0.1244,0.1246,0.124,0,0,0.1251,0.1251,0,0,0,0,0,0,0,0,0.103,0.1036,0.1112,0.1115,0.1119,0.116,0.113,0.1177,0.1184,0.1158,0.1186,0.1187,0.1217,0.122,0.1226,0.1242,0.1245,0.1251,0.1252,0.1253,0.1253,0,0,0,0,0,0,0,0.1026,0.1033,0.1107,0.1113,0.1117,0.1118,0.1126,0.1138,0.118,0.116,0.1164,0.1173,0.1218,0.1224,0.1228,0.1246,0.1251,0.1252,0.1253,0.1254,0.1335,0.1336,0,0,0,0,0,0,0.1025,0.1031,0.1105,0.1109,0.1078,0.112,0.1128,0.1144,0.118,0.1187,0.1172,0.1175,0.1221,0.1226,0.123,0.1294,0.1253,0.1254,0.1255,0.1334,0.1335,0.1337,0,0,0,0,0,0,0.1023,0.1031,0.1103,0.1072,0.1082,0.1121,0.1138,0.1145,0.1177,0.119,0.1197,0.1202,0.1222,0.1228,0.1266,0.1294,0.1255,0.1256,0.1332,0.1334,0.1336,0.1378,0,0,0,0,0,0,0.102,0.103,0.1052,0.1073,0.1084,0.1135,0.1138,0.1145,0.1182,0.1186,0.1217,0.1222,0.1223,0.1263,0.1267,0.1295,0.1257,0.1331,0.1333,0.1335,0.1375,0.1381,0.1386,0,0,0,0,0,0.1016,0.1037,0.1052,0.1062,0.1109,0.1136,0.1142,0.117,0.1182,0.1201,0.1224,0.1222,0.1281,0.1266,0.127,0.1299,0.133,0.1333,0.1335,0.1372,0.1379,0.1386,0,0,0,0,0,0,0.1,0.1044,0.1061,0.1095,0.1124,0.1145,0.1169,0.1184,0.1216,0.1229,0.1236,0.1242,0.1288,0.1287,0.127,0.1329,0.1306,0.1309,0.1332,0.1339,0.1345,0.1342,0.1259,0,0,0,0,0,0.1007,0.104,0.1074,0.1103,0.1122,0.115,0.1169,0.1189,0.1214,0.1231,0.1251,0.1274,0.1297,0.1314,0.1332,0.1362,0.1362,0.1384,0.139,0.1394,0.1396,0.1421,0.1428,0.1346,0.1346,0.1346,0,0,0.1005,0.1038,0.1055,0.1103,0.113,0.1157,0.1164,0.1203,0.1228,0.1231,0.1278,0.1297,0.131,0.1347,0.1367,0.1354,0.1419,0.1398,0.1402,0.1401,0.1424,0.1432,0.1439,0.1347,0.1347,0.1347,0,0,0.1015,0.1054,0.1084,0.1113,0.1164,0.118,0.1197,0.1234,0.126,0.13,0.1312,0.1347,0.138,0.1396,0.1406,0.1452,0.1449,0.1464,0.149,0.1514,0.1521,0.1527,0.154,0.1546,0.1465,0.1465,0.1465,0,0.1015,0.1058,0.1095,0.1131,0.1157,0.1192,0.1221,0.1249,0.1294,0.1315,0.1324,0.1386,0.1401,0.1442,0.1462,0.1465,0.1475,0.1463,0.1521,0.1527,0.1532,0.1544,0.1551,0.1467,0.1467,0.1467,0.1467,0,0.1039,0.1083,0.1105,0.1162,0.1192,0.1226,0.1265,0.1302,0.1334,0.1357,0.1416,0.144,0.1475,0.1489,0.1491,0.1542,0.1535,0.1526,0.1502,0.1543,0.1553,0.1559,0.1471,0.147,0.1469,0.1469,0,0,0.1013,0.1104,0.1114,0.1148,0.1214,0.1237,0.1286,0.1334,0.1372,0.1416,0.1461,0.1507,0.1527,0.154,0.1554,0.1577,0.1627,0.1573,0.1573,0.1582,0.168,0.1575,0.1571,0.1632,0.1633,0.1634,0.1672,0,0.1024,0.109,0.1133,0.1189,0.1225,0.1274,0.1314,0.1362,0.1408,0.146,0.1495,0.1546,0.1544,0.1575,0.1599,0.1625,0.1646,0.1618,0.1642,0.1642,0.1541,0.1576,0.1639,0.1677,0.1678,0.1679,0.168,0,0.103,0.1079,0.1138,0.1215,0.1234,0.1271,0.1344,0.1387,0.146,0.1501,0.1554,0.1584,0.1638,0.1628,0.1684,0.1669,0.168,0.169,0.1691,0.1581,0.1548,0.1627,0.1691,0.169,0.169,0.1689,0.1688,0,0.099,0.1078,0.1126,0.1153,0.1243,0.128,0.1326,0.1401,0.1444,0.1536,0.1572,0.1636,0.1676,0.1704,0.1728,0.1717,0.1777,0.176,0.1672,0.1664,0.1729,0.1723,0.1794,0.1794,0.1794,0.1793,0.1793,0,0.0976,0.1017,0.1117,0.1145,0.1203,0.127,0.1336,0.1394,0.1476,0.1521,0.1594,0.163,0.1699,0.1736,0.1748,0.1726,0.1793,0.1679,0.1668,0.1746,0.1741,0.1734,0.1726,0.1795,0.1794,0.1794,0.1794,0,0.0923,0.0991,0.1054,0.1156,0.119,0.1232,0.1335,0.1375,0.1464,0.1526,0.1557,0.1643,0.1689,0.1736,0.1789,0.1738,0.174,0.1716,0.1802,0.1795,0.1606,0.1601,0.1614,0.1611,0.1608,0.1606,0.1604,0,0.09,0.0931,0.1048,0.1086,0.1138,0.1214,0.126,0.1361,0.1399,0.1513,0.1525,0.1609,0.1653,0.1634,0.17,0.1713,0.1694,0.1677,0.1632,0.16,0.1589,0.1588,0.1586,0.1599,0.1598,0.1598,0.1597,0,0.0856,0.0908,0.0961,0.1041,0.1101,0.1155,0.1227,0.1244,0.1349,0.1437,0.1457,0.1482,0.1529,0.1565,0.159,0.1596,0.1678,0.1647,0.1652,0.161,0.1582,0.1573,0.1575,0.1587,0.1588,0.1589,0.159,0,0.0825,0.0847,0.0924,0.0983,0.1051,0.1076,0.1125,0.1163,0.1211,0.1326,0.1333,0.1422,0.151,0.1505,0.1529,0.1528,0.1501,0.1442,0.1457,0.1469,0.1405,0.1347,0.1272,0,0,0,0,0,0.0792,0.0809,0.0859,0.0917,0.0975,0.1015,0.1091,0.1138,0.1233,0.1209,0.1266,0.1303,0.1335,0.1386,0.1356,0.1476,0.1515,0.1435,0.1456,0.1532,0.1543,0.1481,0,0,0,0,0,0,0.0773,0.0815,0.0835,0.0847,0.0869,0.0921,0.0966,0.103,0.1021,0.1121,0.1145,0.1219,0.1275,0.1338,0.133,0.1346,0.133,0.1495,0.1492,0.1525,0.1536,0.1545,0.1485,0,0,0,0,0]},{"header":{"parameterUnit":"m.s-1","parameterCategory":2,"la1":30.2991,"la2":30.254,"lo1":-89.0895,"lo2":-89.0444,"dy":0.0017,"dx":0.0017,"nx":28,"ny":28,"refTime":"2023-09-04T09:00:00:Z","depth":"4","parameterNumber":3,"parameterNumberName":"V-component_of_CURRENTS"},"data":[0,0,0,0,0,0,0,0,0,0,0,0,0,0,0,0,0,0,0,0,0,0,0,0,0,0,0,0,0,0,0,0,0,0,0,0,0,0,0,0,0,0,0,0,0,0,0,0,0,0,0,0,0,0,0,0,0,0,0.0062,0.0062,0,0.0031,0.003,0.003,0.0007,0.0007,0.0007,0.0007,-0.0041,-0.0042,-0.0043,0,0,0,0,0,0,0,0,0,0,0,0,0,0.0078,0.0078,0.0062,0.0062,0.0062,0.0031,0.003,0.003,0.0007,0.0007,0.0007,0.0006,-0.0041,-0.0042,-0.0043,0,0,0,0,0,0,0,0,0,0,0,0,0,0.0061,0.0078,0.0062,0.0047,0.0045,0.0031,0.003,0.003,0.0007,0.0007,0.0007,0.0006,-0.004,-0.0042,-0.0043,-0.0048,0,0,-0.0048,-0.0049,0,0,0,0,0,0,0,0,0.0062,0.006,0.0049,0.0048,0.0046,0.0023,0.0018,0.0003,0.0007,0.0021,0.0007,0.0006,-0.0021,-0.0024,-0.0029,-0.0051,-0.0053,-0.0049,-0.005,-0.005,-0.0051,0,0,0,0,0,0,0,0.0063,0.0062,0.005,0.0049,0.0047,0.0033,0.003,0.0015,0.0002,0.002,0.0018,0.0015,-0.0022,-0.0028,-0.0031,-0.0053,-0.0049,-0.005,-0.0051,-0.0052,-0.0083,-0.0083,0,0,0,0,0,0,0.0069,0.0063,0.0051,0.0049,0.0054,0.0033,0.003,0.003,0.0002,-0.0002,0.0015,0.0014,-0.0025,-0.0029,-0.0033,-0.0036,-0.005,-0.0052,-0.0053,-0.0083,-0.0083,-0.0083,0,0,0,0,0,0,0.007,0.0069,0.0052,0.0055,0.0052,0.0033,0.0033,0.003,0.0023,-0.0001,-0.0006,0.0012,-0.0025,-0.003,-0.0043,-0.0038,-0.0053,-0.0054,-0.0083,-0.0083,-0.0083,-0.0045,0,0,0,0,0,0,0.007,0.0069,0.0072,0.0056,0.0052,0.0046,0.0033,0.0029,0.0022,0.002,-0.0005,-0.001,-0.0026,-0.004,-0.0044,-0.004,-0.0055,-0.0083,-0.0083,-0.0083,-0.0046,-0.0043,-0.0041,0,0,0,0,0,0.0071,0.0076,0.0072,0.0071,0.0056,0.0046,0.0043,0.0028,0.0022,0.0021,0.0006,-0.0009,-0.0041,-0.0041,-0.0046,-0.0043,-0.0083,-0.0083,-0.0083,-0.0047,-0.0044,-0.0041,0,0,0,0,0,0,0.0081,0.0073,0.0069,0.0071,0.0061,0.0042,0.004,0.003,0.0018,0.0017,-0.0007,-0.0012,-0.0022,-0.0038,-0.0037,-0.0051,-0.0065,-0.0066,-0.0036,-0.0033,-0.003,-0.0019,-0.0057,0,0,0,0,0,0.0086,0.0089,0.0077,0.0078,0.0075,0.0059,0.0053,0.0044,0.003,0.0024,0.0007,-0.001,-0.0024,-0.0032,-0.0047,-0.0055,-0.0071,-0.0056,-0.0054,-0.0051,-0.0045,-0.0064,-0.0063,-0.0081,-0.0081,-0.0081,0,0,0.0089,0.0086,0.0087,0.0081,0.0072,0.0072,0.0054,0.0049,0.0049,0.0021,0.0017,-0.0001,-0.0024,-0.0031,-0.0037,-0.0044,-0.0054,-0.0051,-0.0048,-0.0044,-0.0064,-0.0062,-0.006,-0.0081,-0.0081,-0.0081,0,0,0.0098,0.0096,0.0102,0.0099,0.0091,0.0083,0.0083,0.0068,0.0061,0.0054,0.0035,0.0022,-0.0001,-0.0013,-0.0023,-0.0015,-0.0039,-0.0022,0.0002,-0.0017,-0.0015,-0.0014,-0.0032,-0.0033,-0.002,-0.002,-0.002,0,0.0101,0.0109,0.0101,0.0106,0.0108,0.009,0.0097,0.0088,0.0071,0.0071,0.0057,0.0029,0.0009,0.0003,0.0005,-0.0008,-0.0022,-0.0008,-0.0013,-0.0012,-0.0011,-0.003,-0.0031,-0.0018,-0.0019,-0.0019,-0.0019,0,0.0115,0.0122,0.0126,0.0131,0.0131,0.0134,0.0124,0.0122,0.0112,0.0103,0.0094,0.0065,0.005,0.004,0.0024,0.002,0.0007,-0.0006,-0.0019,-0.0007,-0.0027,-0.0029,-0.0016,-0.0016,-0.0017,-0.0017,0,0,0.0117,0.0133,0.0134,0.0146,0.0146,0.0149,0.0154,0.0154,0.0163,0.0139,0.0144,0.0116,0.0101,0.0089,0.0066,0.0049,0.0037,0.0026,0.0024,0.0013,-0.0003,-0.0005,-0.0008,0.0022,0.0022,0.0022,-0.0019,0,0.0129,0.0151,0.0155,0.0176,0.0188,0.0184,0.0192,0.0192,0.0186,0.0186,0.0156,0.0151,0.012,0.0114,0.0092,0.0053,0.0033,0.0049,-0.0017,-0.0018,-0.0018,-0.0009,0.0021,-0.0021,-0.0021,-0.0021,-0.0022,0,0.0141,0.0157,0.0182,0.0209,0.0214,0.0225,0.0244,0.0251,0.0248,0.0243,0.023,0.0205,0.0181,0.015,0.0089,0.0101,0.0054,0.0019,0.0016,0.0001,-0.0023,-0.0036,-0.0026,-0.0025,-0.0025,-0.0025,-0.0025,0,0.015,0.0176,0.0201,0.0209,0.0233,0.0247,0.0261,0.0269,0.0287,0.0283,0.0289,0.0252,0.0236,0.0175,0.0103,0.0096,0.0033,0.0011,-0.0036,-0.0037,-0.0041,-0.0042,-0.0035,-0.0035,-0.0035,-0.0034,-0.0034,0,0.0162,0.0182,0.021,0.0224,0.026,0.027,0.0308,0.0314,0.0333,0.0359,0.0322,0.0326,0.0242,0.0195,0.0121,0.0043,0.0045,-0.0028,-0.0046,-0.0024,-0.0023,-0.0043,-0.0043,-0.0036,-0.0036,-0.0035,-0.0035,0,0.0165,0.0183,0.0216,0.025,0.0266,0.0293,0.0344,0.0372,0.0384,0.0415,0.0416,0.0383,0.0324,0.0236,0.0139,0.0072,-0.0007,-0.0039,-0.0002,-0.0018,-0.0073,-0.0071,-0.0096,-0.0097,-0.0097,-0.0097,-0.0097,0,0.0168,0.0185,0.0235,0.0261,0.0279,0.0325,0.036,0.0393,0.0426,0.045,0.0463,0.0422,0.0385,0.0255,0.0155,0.0018,-0.0009,-0.0055,-0.0072,-0.0063,-0.0078,-0.0075,-0.0073,-0.0098,-0.0098,-0.0098,-0.0098,0,0.0172,0.0191,0.0219,0.0274,0.0317,0.0371,0.0422,0.0449,0.0489,0.0501,0.0506,0.0441,0.0374,0.0264,0.016,0.0058,-0.0026,-0.0058,-0.0059,-0.0076,-0.0065,-0.0079,-0.0077,-0.0099,-0.0099,-0.0099,-0.0099,0,0.0175,0.0195,0.0234,0.0285,0.0341,0.0398,0.0428,0.047,0.0506,0.0531,0.0532,0.0463,0.0426,0.0285,0.0191,0.0092,0.0055,0.0009,0.0004,0.0004,0.004,0.0069,0.0067,0,0,0,0,0,0.0175,0.0199,0.0242,0.03,0.0357,0.0393,0.0461,0.0489,0.0527,0.0535,0.0537,0.0477,0.0347,0.0296,0.0197,0.0165,0.0026,0.0042,-0.0033,-0.0105,-0.0103,-0.0078,0,0,0,0,0,0,0.0177,0.0212,0.0237,0.0305,0.0344,0.0412,0.0458,0.0486,0.0495,0.0516,0.0454,0.0435,0.0312,0.0401,0.0189,0.016,0.0094,-0.0012,-0.0015,-0.0105,-0.0104,-0.0103,-0.0077,0,0,0,0,0]}]]